TimeMDT,TemperatureF,Dew PointF,Humidity,Sea Level PressureIn,VisibilityMPH,Wind Direction,Wind SpeedMPH,Gust SpeedMPH,PrecipitationIn,Events,Conditions,WindDirDegrees,DateUTC
12:53 AM,57.0,46.0,67,29.71,10.0,East,8.1,-,N/A,,Scattered Clouds,80,2013-05-17 06:53:00
1:53 AM,55.9,46.0,69,29.70,10.0,South,9.2,-,N/A,,Scattered Clouds,180,2013-05-17 07:53:00
2:53 AM,57.9,45.0,62,29.69,10.0,South,11.5,-,N/A,,Partly Cloudy,190,2013-05-17 08:53:00
3:53 AM,55.0,45.0,69,29.69,10.0,South,12.7,-,N/A,,Scattered Clouds,180,2013-05-17 09:53:00
4:53 AM,55.0,45.0,69,29.69,10.0,SW,10.4,-,N/A,,Scattered Clouds,230,2013-05-17 10:53:00
5:53 AM,55.4,44.6,67,29.90,10.0,SW,12.7,-,N/A,,Mostly Cloudy,230,2013-05-17 11:53:00
6:53 AM,57.0,44.1,62,29.72,10.0,WSW,8.1,-,N/A,,Mostly Cloudy,240,2013-05-17 12:53:00
7:53 AM,62.1,43.0,50,29.72,10.0,WSW,6.9,-,N/A,,Scattered Clouds,240,2013-05-17 13:53:00
8:53 AM,69.1,41.0,36,29.71,10.0,WSW,11.5,-,N/A,,Scattered Clouds,250,2013-05-17 14:53:00
9:53 AM,75.9,37.0,24,29.69,10.0,West,12.7,-,N/A,,Scattered Clouds,270,2013-05-17 15:53:00
10:53 AM,81.0,27.0,14,29.68,10.0,SW,13.8,-,N/A,,Partly Cloudy,220,2013-05-17 16:53:00
11:53 AM,82.0,21.9,11,29.67,10.0,SSW,9.2,19.6,N/A,,Partly Cloudy,210,2013-05-17 17:53:00
12:53 PM,82.4,26.6,13,29.87,10.0,SW,10.4,-,N/A,,Partly Cloudy,220,2013-05-17 18:53:00
1:53 PM,84.0,19.9,9,29.62,10.0,South,8.1,20.7,N/A,,Partly Cloudy,190,2013-05-17 19:53:00
2:53 PM,84.9,24.1,11,29.59,10.0,SSW,10.4,-,N/A,,Scattered Clouds,200,2013-05-17 20:53:00
3:53 PM,86.0,39.0,19,29.56,10.0,SE,23.0,29.9,N/A,,Scattered Clouds,130,2013-05-17 21:53:00
4:53 PM,84.9,36.0,17,29.54,10.0,SE,17.3,-,N/A,,Scattered Clouds,130,2013-05-17 22:53:00
5:53 PM,81.0,28.9,15,29.54,10.0,ESE,4.6,-,N/A,,Mostly Cloudy,120,2013-05-17 23:53:00
6:53 PM,77.0,33.1,20,29.55,10.0,South,11.5,-,N/A,,Mostly Cloudy,170,2013-05-18 00:53:00
7:53 PM,75.0,23.0,14,29.55,10.0,South,18.4,-,N/A,,Mostly Cloudy,180,2013-05-18 01:53:00
8:53 PM,72.0,19.9,14,29.56,10.0,SSW,13.8,-,N/A,,Mostly Cloudy,200,2013-05-18 02:53:00
9:53 PM,71.1,35.1,27,29.57,10.0,West,8.1,-,N/A,,Mostly Cloudy,260,2013-05-18 03:53:00
10:53 PM,68.0,26.1,21,29.58,10.0,West,6.9,-,N/A,,Partly Cloudy,280,2013-05-18 04:53:00
11:53 PM,66.9,25.0,21,29.59,10.0,West,6.9,-,N/A,,Partly Cloudy,260,2013-05-18 05:53:00